Simultaneous Nadir Overpasses (SNOs) Predictions

Prediction of SNOs between GOES-14 and NPP Satellite Orbit:

Table of predicted SNOs for the next 14.0 days since TLE Epoch: 12/1/2024
Index Date Time (GOES-14) GOES-14 Lat,Lon NPP Lat,Lon Distance(km) Time Diff (sec)
1 12/01/2024 20:48:33 -0.03,-108.49 -0.51,-110.50 229.82 80
2 12/02/2024 20:27:12 -0.02,-108.49 0.55,-105.99 284.60 80
3 12/04/2024 08:51:42 0.05,-108.53 0.67,-111.26 311.18 80
4 12/05/2024 08:30:20 0.03,-108.52 -0.34,-106.74 202.88 80
5 12/06/2024 20:55:00 -0.06,-108.45 -0.84,-112.06 410.71 80
6 12/07/2024 20:33:38 -0.04,-108.44 0.18,-107.54 103.65 80
7 12/09/2024 08:58:08 0.07,-108.50 1.02,-112.81 491.48 80
8 12/10/2024 08:36:45 0.05,-108.49 -0.01,-108.29 22.81 80
9 12/12/2024 20:42:41 -0.07,-108.40 -0.24,-109.07 76.48 80
10 12/13/2024 20:21:19 -0.06,-108.39 0.79,-104.55 437.76 80
